Huvudsida
METAR-TAF:

METAR-TAF

Flygplatser :

Skövde, Sverige

latitud: 58-27N, longitud: 013-58E, höjd: 98 m

Aktuellt väderrapport

Denna rapport gjordes för 15 minuter sedan, klockan 06:20 UTC
Vind 7 kt från syd/sydväst
Temperatur 14°C
Fuktighet 72%
Tryck 1000 hPa
Sikt 10 km eller mer

METAR: ESGR 210620Z AUTO 20007KT 9999 SCT011/// BKN016/// BKN030/// 14/09 Q1000

Tid: 08:35 (06:35 UTC)


TAF: saknas

Aktuella väderrapporter och prognoser från 4000 flygplatser (METAR- och TAF-rapporter).

De tillgängliga stationerna syns som gula och röda prickar på kartan.

För musen över prickarna för att se namnen på stationerna.

Klicka sedan för att få väderrapporter och prognoser.

För att ändra kartan: Klicka på de gröna knapparna med ett svart kors på för att zooma in; den gröna knappen med ett streck på för att zooma ut; eller på de gröna pilarna för angränsande kartor.


METAR-TAF: